Time,TemperatureF,DewpointF,PressureIn,WindDirection,WindDirectionDegrees,WindSpeedMPH,WindSpeedGustMPH,Humidity,HourlyPrecipIn,Conditions,Clouds,dailyrainin,SoftwareType,DateUTC
2013-08-09 00:02:00,67.0,61.0,-100.00,NE,45,5.0,8.0,83,-99.99,,,-99.99,,2013-08-09 05:02:00,
2013-08-09 00:11:00,66.0,61.0,-100.00,ENE,60,5.0,8.0,82,-99.99,,,-99.99,,2013-08-09 05:11:00,
2013-08-09 00:22:00,66.0,61.0,-100.00,ENE,60,5.0,8.0,82,-99.99,,,-99.99,,2013-08-09 05:22:00,
2013-08-09 00:32:00,66.0,61.0,-100.00,East,80,4.0,6.0,84,-99.99,,,-99.99,,2013-08-09 05:32:00,
2013-08-09 00:43:00,65.0,60.0,-100.00,NE,35,7.0,9.0,86,-99.99,,,-99.99,,2013-08-09 05:43:00,
2013-08-09 00:52:00,65.0,60.0,-100.00,NE,35,7.0,9.0,86,-99.99,,,-99.99,,2013-08-09 05:52:00,
2013-08-09 01:01:00,64.0,60.0,-100.00,NE,55,5.0,7.0,86,-99.99,,,-99.99,,2013-08-09 06:01:00,
2013-08-09 01:11:00,64.0,60.0,-100.00,NNE,25,6.0,7.0,86,-99.99,,,-99.99,,2013-08-09 06:11:00,
2013-08-09 01:22:00,64.0,60.0,-100.00,NNE,25,6.0,7.0,86,-99.99,,,-99.99,,2013-08-09 06:22:00,
2013-08-09 01:43:00,63.0,60.0,-100.00,NE,45,5.0,6.0,90,-99.99,,,-99.99,,2013-08-09 06:43:00,
2013-08-09 01:52:00,63.0,60.0,-100.00,NE,45,5.0,6.0,90,-99.99,,,-99.99,,2013-08-09 06:52:00,
2013-08-09 02:01:00,63.0,60.0,-100.00,NE,40,4.0,5.0,90,-99.99,,,-99.99,,2013-08-09 07:01:00,
2013-08-09 02:12:00,62.0,59.0,-100.00,NE,40,6.0,6.0,90,-99.99,,,-99.99,,2013-08-09 07:12:00,
2013-08-09 02:22:00,62.0,59.0,-100.00,NE,40,6.0,6.0,90,-99.99,,,-99.99,,2013-08-09 07:22:00,
2013-08-09 02:33:00,61.0,59.0,-100.00,NE,55,5.0,6.0,91,-99.99,,,-99.99,,2013-08-09 07:33:00,
2013-08-09 02:43:00,61.0,59.0,-100.00,ENE,60,5.0,6.0,91,-99.99,,,-99.99,,2013-08-09 07:43:00,
2013-08-09 02:53:00,61.0,59.0,-100.00,ENE,60,5.0,6.0,91,-99.99,,,-99.99,,2013-08-09 07:53:00,
2013-08-09 03:12:00,61.0,59.0,-100.00,ENE,70,5.0,6.0,91,-99.99,,,-99.99,,2013-08-09 08:12:00,
2013-08-09 03:22:00,61.0,59.0,-100.00,ENE,70,5.0,6.0,91,-99.99,,,-99.99,,2013-08-09 08:22:00,
2013-08-09 03:32:00,61.0,59.0,-100.00,NE,55,4.0,6.0,92,-99.99,,,-99.99,,2013-08-09 08:32:00,
2013-08-09 03:43:00,62.0,59.0,-100.00,NE,35,4.0,6.0,92,-99.99,,,-99.99,,2013-08-09 08:43:00,
2013-08-09 03:53:00,62.0,59.0,-100.00,NE,35,4.0,6.0,92,-99.99,,,-99.99,,2013-08-09 08:53:00,
2013-08-09 04:02:00,62.0,59.0,-100.00,NE,45,4.0,5.0,91,-99.99,,,-99.99,,2013-08-09 09:02:00,
2013-08-09 04:12:00,61.0,58.0,-100.00,NE,50,5.0,5.0,90,-99.99,,,-99.99,,2013-08-09 09:12:00,
2013-08-09 04:22:00,61.0,58.0,-100.00,NE,50,5.0,5.0,90,-99.99,,,-99.99,,2013-08-09 09:22:00,
2013-08-09 04:32:00,60.0,57.0,-100.00,NE,50,6.0,6.0,90,-99.99,,,-99.99,,2013-08-09 09:32:00,
2013-08-09 04:43:00,60.0,57.0,-100.00,NNE,30,4.0,6.0,89,-99.99,,,-99.99,,2013-08-09 09:43:00,
2013-08-09 04:52:00,60.0,57.0,-100.00,NNE,30,4.0,6.0,89,-99.99,,,-99.99,,2013-08-09 09:52:00,
2013-08-09 05:01:00,60.0,57.0,-100.00,NE,45,4.0,4.0,90,-99.99,,,-99.99,,2013-08-09 10:01:00,
2013-08-09 05:12:00,60.0,57.0,-100.00,NE,45,3.0,4.0,90,-99.99,,,-99.99,,2013-08-09 10:12:00,
2013-08-09 05:22:00,60.0,57.0,-100.00,NE,45,3.0,4.0,90,-99.99,,,-99.99,,2013-08-09 10:22:00,
2013-08-09 05:32:00,59.0,56.0,-100.00,ENE,60,3.0,4.0,90,-99.99,,,-99.99,,2013-08-09 10:32:00,
2013-08-09 05:43:00,60.0,57.0,-100.00,North,5,3.0,4.0,90,-99.99,,,-99.99,,2013-08-09 10:43:00,
2013-08-09 05:53:00,60.0,57.0,-100.00,North,5,3.0,4.0,90,-99.99,,,-99.99,,2013-08-09 10:53:00,
2013-08-09 06:11:00,60.0,56.0,-100.00,North,10,2.0,2.0,87,-99.99,,,-99.99,,2013-08-09 11:11:00,
2013-08-09 06:22:00,60.0,56.0,-100.00,North,10,2.0,2.0,87,-99.99,,,-99.99,,2013-08-09 11:22:00,
2013-08-09 06:33:00,60.0,56.0,-100.00,NNE,25,2.0,2.0,87,-99.99,,,-99.99,,2013-08-09 11:33:00,
2013-08-09 06:43:00,60.0,56.0,-100.00,NNE,15,1.0,3.0,88,-99.99,,,-99.99,,2013-08-09 11:43:00,
2013-08-09 06:53:00,60.0,56.0,-100.00,NNE,15,1.0,3.0,88,-99.99,,,-99.99,,2013-08-09 11:53:00,
2013-08-09 07:02:00,61.0,57.0,-100.00,North,10,2.0,2.0,87,-99.99,,,-99.99,,2013-08-09 12:02:00,
2013-08-09 07:12:00,62.0,57.0,-100.00,NNE,25,0.0,1.0,84,-99.99,,,-99.99,,2013-08-09 12:12:00,
2013-08-09 07:22:00,62.0,57.0,-100.00,NNE,25,0.0,1.0,84,-99.99,,,-99.99,,2013-08-09 12:22:00,
2013-08-09 07:43:00,64.0,58.0,-100.00,NNE,25,0.0,1.0,79,-99.99,,,-99.99,,2013-08-09 12:43:00,
2013-08-09 07:52:00,64.0,58.0,-100.00,NNE,25,0.0,1.0,79,-99.99,,,-99.99,,2013-08-09 12:52:00,
2013-08-09 08:12:00,67.0,59.0,-100.00,East,90,2.0,4.0,75,-99.99,,,-99.99,,2013-08-09 13:12:00,
2013-08-09 08:23:00,67.0,59.0,-100.00,East,90,2.0,4.0,75,-99.99,,,-99.99,,2013-08-09 13:23:00,
2013-08-09 08:32:00,68.0,59.0,-100.00,East,80,2.0,4.0,74,-99.99,,,-99.99,,2013-08-09 13:32:00,
2013-08-09 08:43:00,69.0,60.0,-100.00,NE,50,2.0,3.0,72,-99.99,,,-99.99,,2013-08-09 13:43:00,
2013-08-09 08:52:00,69.0,60.0,-100.00,NE,50,2.0,3.0,72,-99.99,,,-99.99,,2013-08-09 13:52:00,
2013-08-09 09:02:00,70.0,59.0,-100.00,NE,50,3.0,4.0,69,-99.99,,,-99.99,,2013-08-09 14:02:00,
2013-08-09 09:11:00,71.0,59.0,-100.00,NE,35,1.0,4.0,66,-99.99,,,-99.99,,2013-08-09 14:11:00,
2013-08-09 09:22:00,71.0,59.0,-100.00,NE,35,1.0,4.0,66,-99.99,,,-99.99,,2013-08-09 14:22:00,
2013-08-09 09:33:00,72.0,59.0,-100.00,NNE,30,2.0,4.0,63,-99.99,,,-99.99,,2013-08-09 14:33:00,
2013-08-09 09:43:00,73.0,59.0,-100.00,NNE,25,2.0,3.0,62,-99.99,,,-99.99,,2013-08-09 14:43:00,
2013-08-09 09:53:00,73.0,59.0,-100.00,NNE,25,2.0,3.0,62,-99.99,,,-99.99,,2013-08-09 14:53:00,
2013-08-09 10:11:00,75.0,61.0,-100.00,NE,50,1.0,4.0,60,-99.99,,,-99.99,,2013-08-09 15:11:00,
2013-08-09 10:22:00,75.0,61.0,-100.00,NE,50,1.0,4.0,60,-99.99,,,-99.99,,2013-08-09 15:22:00,
2013-08-09 10:33:00,75.0,59.0,-100.00,NNW,330,4.0,7.0,57,-99.99,,,-99.99,,2013-08-09 15:33:00,
2013-08-09 10:44:00,78.0,60.0,-100.00,NE,35,2.0,6.0,55,-99.99,,,-99.99,,2013-08-09 15:44:00,
2013-08-09 10:53:00,78.0,60.0,-100.00,NE,35,2.0,6.0,55,-99.99,,,-99.99,,2013-08-09 15:53:00,
2013-08-09 11:11:00,79.0,58.0,-100.00,NE,40,5.0,6.0,50,-99.99,,,-99.99,,2013-08-09 16:11:00,
2013-08-09 11:22:00,79.0,58.0,-100.00,NE,40,5.0,6.0,50,-99.99,,,-99.99,,2013-08-09 16:22:00,
2013-08-09 11:32:00,80.0,59.0,-100.00,NE,55,3.0,7.0,48,-99.99,,,-99.99,,2013-08-09 16:32:00,
2013-08-09 11:43:00,79.0,59.0,-100.00,North,0,5.0,8.0,50,-99.99,,,-99.99,,2013-08-09 16:43:00,
2013-08-09 11:53:00,79.0,59.0,-100.00,North,0,5.0,8.0,50,-99.99,,,-99.99,,2013-08-09 16:53:00,
2013-08-09 12:11:00,80.0,60.0,-100.00,ENE,65,3.0,7.0,50,-99.99,,,-99.99,,2013-08-09 17:11:00,
2013-08-09 12:22:00,80.0,60.0,-100.00,ENE,65,3.0,7.0,50,-99.99,,,-99.99,,2013-08-09 17:22:00,
2013-08-09 12:33:00,82.0,61.0,-100.00,NW,310,4.0,7.0,49,-99.99,,,-99.99,,2013-08-09 17:33:00,
2013-08-09 12:43:00,82.0,62.0,-100.00,NE,50,4.0,9.0,51,-99.99,,,-99.99,,2013-08-09 17:43:00,
2013-08-09 12:52:00,82.0,62.0,-100.00,NE,50,4.0,9.0,51,-99.99,,,-99.99,,2013-08-09 17:52:00,
2013-08-09 13:01:00,82.0,61.0,-100.00,ENE,65,4.0,8.0,49,-99.99,,,-99.99,,2013-08-09 18:01:00,
2013-08-09 13:11:00,82.0,61.0,-100.00,NNE,25,5.0,6.0,50,-99.99,,,-99.99,,2013-08-09 18:11:00,
2013-08-09 13:22:00,82.0,61.0,-100.00,NNE,25,5.0,6.0,50,-99.99,,,-99.99,,2013-08-09 18:22:00,
2013-08-09 13:32:00,81.0,61.0,-100.00,NNE,25,6.0,8.0,51,-99.99,,,-99.99,,2013-08-09 18:32:00,
2013-08-09 13:43:00,82.0,62.0,-100.00,NE,50,4.0,7.0,51,-99.99,,,-99.99,,2013-08-09 18:43:00,
2013-08-09 13:53:00,82.0,62.0,-100.00,NE,50,4.0,7.0,51,-99.99,,,-99.99,,2013-08-09 18:53:00,
2013-08-09 14:11:00,83.0,61.0,-100.00,NE,55,1.0,5.0,47,-99.99,,,-99.99,,2013-08-09 19:11:00,
2013-08-09 14:22:00,83.0,61.0,-100.00,NE,55,1.0,5.0,47,-99.99,,,-99.99,,2013-08-09 19:22:00,
2013-08-09 14:32:00,83.0,61.0,-100.00,NE,55,1.0,5.0,47,-99.99,,,-99.99,,2013-08-09 19:32:00,
2013-08-09 14:43:00,83.0,61.0,-100.00,NE,55,1.0,5.0,47,-99.99,,,-99.99,,2013-08-09 19:43:00,
2013-08-09 15:11:00,82.0,62.0,-100.00,SE,145,3.0,5.0,51,-99.99,,,-99.99,,2013-08-09 20:11:00,
2013-08-09 15:22:00,82.0,62.0,-100.00,SE,145,3.0,5.0,51,-99.99,,,-99.99,,2013-08-09 20:22:00,
2013-08-09 15:32:00,82.0,61.0,-100.00,ESE,115,0.0,4.0,49,-99.99,,,-99.99,,2013-08-09 20:32:00,
2013-08-09 15:43:00,81.0,62.0,-100.00,SSW,200,3.0,4.0,51,-99.99,,,-99.99,,2013-08-09 20:43:00,
2013-08-09 15:52:00,81.0,62.0,-100.00,SSW,200,3.0,4.0,51,-99.99,,,-99.99,,2013-08-09 20:52:00,
2013-08-09 16:01:00,81.0,62.0,-100.00,WSW,240,2.0,4.0,53,-99.99,,,-99.99,,2013-08-09 21:01:00,
2013-08-09 16:12:00,81.0,63.0,-100.00,SW,230,2.0,4.0,54,-99.99,,,-99.99,,2013-08-09 21:12:00,
2013-08-09 16:22:00,81.0,63.0,-100.00,SW,230,2.0,4.0,54,-99.99,,,-99.99,,2013-08-09 21:22:00,
2013-08-09 16:43:00,81.0,63.0,-100.00,SW,215,4.0,6.0,55,-99.99,,,-99.99,,2013-08-09 21:43:00,
2013-08-09 16:52:00,81.0,63.0,-100.00,SW,215,4.0,6.0,55,-99.99,,,-99.99,,2013-08-09 21:52:00,
2013-08-09 17:11:00,80.0,64.0,-100.00,SW,225,4.0,6.0,59,-99.99,,,-99.99,,2013-08-09 22:11:00,
2013-08-09 17:22:00,80.0,64.0,-100.00,SW,225,4.0,6.0,59,-99.99,,,-99.99,,2013-08-09 22:22:00,
2013-08-09 17:32:00,80.0,65.0,-100.00,West,260,5.0,6.0,59,-99.99,,,-99.99,,2013-08-09 22:32:00,
2013-08-09 17:42:00,80.0,65.0,-100.00,SW,225,4.0,6.0,61,-99.99,,,-99.99,,2013-08-09 22:42:00,
2013-08-09 17:52:00,80.0,65.0,-100.00,SW,225,4.0,6.0,61,-99.99,,,-99.99,,2013-08-09 22:52:00,
2013-08-09 18:11:00,78.0,66.0,-100.00,SW,220,5.0,7.0,65,-99.99,,,-99.99,,2013-08-09 23:11:00,
2013-08-09 18:22:00,78.0,66.0,-100.00,SW,220,5.0,7.0,65,-99.99,,,-99.99,,2013-08-09 23:22:00,
2013-08-09 18:32:00,78.0,67.0,-100.00,SW,230,3.0,6.0,70,-99.99,,,-99.99,,2013-08-09 23:32:00,
2013-08-09 18:43:00,77.0,67.0,-100.00,SW,230,4.0,6.0,70,-99.99,,,-99.99,,2013-08-09 23:43:00,
2013-08-09 18:52:00,77.0,67.0,-100.00,SW,230,4.0,6.0,70,-99.99,,,-99.99,,2013-08-09 23:52:00,
2013-08-09 19:01:00,77.0,67.0,-100.00,SW,225,4.0,4.0,73,-99.99,,,-99.99,,2013-08-10 00:01:00,
2013-08-09 19:11:00,76.0,68.0,-100.00,SW,220,3.0,4.0,76,-99.99,,,-99.99,,2013-08-10 00:11:00,
2013-08-09 19:22:00,76.0,68.0,-100.00,SW,220,3.0,4.0,76,-99.99,,,-99.99,,2013-08-10 00:22:00,
2013-08-09 19:53:00,75.0,69.0,-100.00,WSW,250,4.0,5.0,82,-99.99,,,-99.99,,2013-08-10 00:53:00,
2013-08-09 20:01:00,74.0,69.0,-100.00,SW,235,4.0,4.0,84,-99.99,,,-99.99,,2013-08-10 01:01:00,
2013-08-09 20:11:00,73.0,69.0,-100.00,SW,230,4.0,5.0,87,-99.99,,,-99.99,,2013-08-10 01:11:00,
2013-08-09 20:22:00,73.0,69.0,-100.00,SW,230,4.0,5.0,87,-99.99,,,-99.99,,2013-08-10 01:22:00,
2013-08-09 20:32:00,72.0,69.0,-100.00,WSW,240,4.0,5.0,89,-99.99,,,-99.99,,2013-08-10 01:32:00,
2013-08-09 20:42:00,72.0,69.0,-100.00,WSW,250,4.0,6.0,89,-99.99,,,-99.99,,2013-08-10 01:42:00,
2013-08-09 20:52:00,72.0,69.0,-100.00,WSW,250,4.0,6.0,89,-99.99,,,-99.99,,2013-08-10 01:52:00,
2013-08-09 21:03:00,71.0,68.0,-100.00,WSW,250,4.0,5.0,90,-99.99,,,-99.99,,2013-08-10 02:03:00,
2013-08-09 21:11:00,71.0,68.0,-100.00,WSW,255,5.0,6.0,89,-99.99,,,-99.99,,2013-08-10 02:11:00,
2013-08-09 21:21:00,71.0,68.0,-100.00,WSW,255,5.0,6.0,89,-99.99,,,-99.99,,2013-08-10 02:21:00,
2013-08-09 21:32:00,70.0,67.0,-100.00,WSW,255,6.0,7.0,91,-99.99,,,-99.99,,2013-08-10 02:32:00,
2013-08-09 21:42:00,70.0,67.0,-100.00,WSW,255,4.0,6.0,91,-99.99,,,-99.99,,2013-08-10 02:42:00,
2013-08-09 21:52:00,70.0,67.0,-100.00,WSW,255,4.0,6.0,91,-99.99,,,-99.99,,2013-08-10 02:52:00,
2013-08-09 22:11:00,69.0,67.0,-100.00,SW,235,4.0,5.0,92,-99.99,,,-99.99,,2013-08-10 03:11:00,
2013-08-09 22:22:00,69.0,67.0,-100.00,SW,235,4.0,5.0,92,-99.99,,,-99.99,,2013-08-10 03:22:00,
2013-08-09 22:32:00,70.0,67.0,-100.00,SW,220,5.0,6.0,91,-99.99,,,-99.99,,2013-08-10 03:32:00,
2013-08-09 22:42:00,69.0,66.0,-100.00,SW,225,4.0,6.0,92,-99.99,,,-99.99,,2013-08-10 03:42:00,
2013-08-09 22:52:00,69.0,66.0,-100.00,SW,225,4.0,6.0,92,-99.99,,,-99.99,,2013-08-10 03:52:00,
2013-08-09 23:12:00,69.0,67.0,-100.00,SW,220,6.0,6.0,95,-99.99,,,-99.99,,2013-08-10 04:12:00,
2013-08-09 23:22:00,69.0,67.0,-100.00,SW,220,6.0,6.0,95,-99.99,,,-99.99,,2013-08-10 04:22:00,
2013-08-09 23:32:00,69.0,67.0,-100.00,SSW,205,4.0,6.0,95,-99.99,,,-99.99,,2013-08-10 04:32:00,
2013-08-09 23:43:00,69.0,67.0,-100.00,SW,215,4.0,6.0,95,-99.99,,,-99.99,,2013-08-10 04:43:00,
2013-08-09 23:53:00,69.0,67.0,-100.00,SW,215,4.0,6.0,95,-99.99,,,-99.99,,2013-08-10 04:53:00,